Location: Chena
(64.8152°N, 147.9227°W)
Time: 16:42:18
(UTC+00:00)

Altair - All Passes

Search period start: 27 February 2021 00:00
Search period end: 09 March 2021 00:00
Orbit: 1501 x 1682 km, 47.2° (Epoch: 26 February)

Date Brightness Start Highest point End Pass type
(mag) Time Alt. Az. Time Alt. Az. Time Alt. Az.
27 Feb - 04:55:34 10° SSE 04:58:38 12° SE 05:01:45 10° ESE visible
27 Feb - 06:53:30 10° SSW 07:00:18 23° SSE 07:07:16 10° ESE visible
27 Feb - 08:55:08 10° SW 09:02:35 27° S 09:10:13 10° SE visible
27 Feb - 10:58:22 10° WSW 11:04:48 21° SSW 11:11:23 10° SSE night (unlit)
28 Feb - 04:31:28 10° SSE 04:33:43 11° SE 04:35:58 10° ESE visible
28 Feb - 06:28:38 10° SSW 06:35:18 22° SSE 06:42:07 10° ESE visible
28 Feb - 08:30:09 10° SW 08:37:34 27° S 08:45:11 10° SE visible
28 Feb - 10:33:15 10° WSW 10:39:48 21° SSW 10:46:31 10° SSE visible
01 Mar - 04:08:11 10° SE 04:08:48 10° SE 04:09:25 10° SE visible
01 Mar - 06:03:49 10° SSW 06:10:19 22° SSE 06:16:58 10° ESE visible
01 Mar - 08:05:09 10° SW 08:12:32 27° S 08:20:08 10° SE visible
01 Mar - 10:08:09 10° WSW 10:14:49 22° SSW 10:21:38 10° SSE visible
01 Mar - 12:14:52 10° WSW 12:16:25 10° SW 12:18:00 10° SW night (unlit)
02 Mar - 05:39:00 10° SSW 05:45:20 21° SSE 05:51:48 10° ESE visible
02 Mar - 07:40:10 10° SW 07:47:32 27° S 07:55:05 10° SE visible
02 Mar - 09:43:03 10° WSW 09:49:49 22° SSW 09:56:44 10° SSE visible
02 Mar - 11:48:55 10° WSW 11:51:29 11° SW 11:54:06 10° SSW night (unlit)
03 Mar - 05:14:12 10° SSW 05:20:21 20° SSE 05:26:38 10° ESE visible
03 Mar - 07:15:12 10° SW 07:22:31 27° S 07:30:01 10° SE visible
03 Mar - 09:17:58 10° WSW 09:24:49 23° SSW 09:31:48 10° SSE visible
03 Mar - 11:23:18 10° WSW 11:26:33 12° SW 11:29:51 10° SSW visible
04 Mar - 04:49:26 10° S 04:55:23 19° SSE 05:01:27 10° ESE visible
04 Mar - 06:50:14 10° SW 06:57:30 26° S 07:04:57 10° ESE visible
04 Mar - 08:52:54 10° WSW 08:59:48 24° SSW 09:06:53 10° SSE visible
04 Mar - 10:57:50 10° WSW 11:01:36 13° SW 11:05:27 10° SSW visible
05 Mar - 04:24:41 10° S 04:30:25 18° SSE 04:36:15 10° ESE visible
05 Mar - 06:25:17 10° SW 06:32:30 26° S 06:39:53 10° ESE visible
05 Mar - 08:27:51 10° WSW 08:34:48 24° SSW 08:41:56 10° SSE visible
05 Mar - 10:32:27 10° WSW 10:36:39 14° SW 10:40:56 10° SSW visible
06 Mar - 03:59:58 10° S 04:05:28 18° SSE 04:11:02 10° ESE visible
06 Mar - 06:00:20 10° SW 06:07:29 26° S 06:14:49 10° ESE visible
06 Mar - 08:02:48 10° WSW 08:09:48 24° SSW 08:16:59 10° SSE visible
06 Mar - 10:07:09 10° WSW 10:11:42 15° SW 10:16:20 10° S visible
07 Mar - 03:35:17 10° S 03:40:30 17° SE 03:45:48 10° ESE daylight
07 Mar - 05:35:24 10° SW 05:42:29 25° S 05:49:44 10° ESE visible
07 Mar - 07:37:45 10° WSW 07:44:48 25° SSW 07:52:01 10° SE visible
07 Mar - 09:41:52 10° WSW 09:46:45 15° SW 09:51:42 10° S visible
08 Mar - 03:10:37 10° S 03:15:33 16° SE 03:20:32 10° ESE daylight
08 Mar - 05:10:28 10° SW 05:17:29 25° SSE 05:24:38 10° ESE visible
08 Mar - 07:12:43 10° WSW 07:19:47 25° SSW 07:27:03 10° SE visible
08 Mar - 09:16:39 10° WSW 09:21:47 16° SW 09:27:01 10° S visible
